Theta_e
319 319 323 329 335 338 338 336 331 326 330 334 335 333 332 333 335 346 356 355 356 355 358 362 361 365 365 362 363 359 359 360 357 358 356 354 353 353 351 347 347 347 347 351 352 352 351 351 350 350 348 348 348 348 350 353 354 354 355 356 356 356 356 355 354 353 353 353 353 354 353 353 354 354 354 355 353 353 353 353 353 352 353 351 350 351
319 319 321 329 335 337 335 331 328 326 328 331 332 330 328 330 334 345 354 354 356 354 354 360 361 363 364 362 362 360 360 359 357 358 357 355 354 353 352 349 348 348 348 349 352 352 352 351 351 350 350 351 352 353 354 354 354 354 354 356 357 357 357 356 354 354 354 354 354 354 354 354 354 354 354 354 353 354 354 353 353 353 353 352 352 352
317 318 322 329 333 333 331 328 327 326 327 329 329 326 322 329 337 343 352 355 355 353 354 359 358 360 364 363 363 362 359 358 356 357 357 356 355 353 352 351 349 349 349 348 350 352 351 352 353 352 353 352 354 355 355 354 355 355 354 356 358 358 357 357 356 356 356 355 355 355 354 354 354 354 354 355 355 354 354 353 354 354 353 352 353 353
314 317 323 331 332 333 332 328 327 326 327 328 327 321 319 329 334 332 344 356 356 353 356 361 356 356 364 362 363 362 359 359 357 357 359 357 356 354 352 352 351 349 350 348 347 350 350 351 353 353 353 353 354 355 354 354 355 355 355 356 358 359 358 358 358 358 357 355 355 355 354 355 355 355 355 356 356 356 355 354 355 355 353 353 353 353
317 321 326 331 332 334 333 330 328 326 325 327 327 322 320 328 332 333 344 354 356 354 355 358 348 347 360 363 363 361 359 360 358 357 358 357 357 355 352 352 351 349 350 349 347 347 349 350 352 353 353 354 354 355 355 355 355 355 355 356 358 359 359 359 359 358 358 355 354 355 355 355 355 354 354 355 356 356 356 354 354 355 354 354 354 354
321 325 328 330 332 334 333 330 330 327 322 322 326 326 324 328 333 340 347 346 340 339 347 351 337 336 351 360 361 361 361 361 359 358 357 356 357 356 355 353 350 349 348 348 347 347 348 349 350 352 353 354 353 354 354 354 354 355 355 356 357 359 359 359 359 358 357 356 354 354 355 354 354 354 354 355 355 355 354 353 354 355 354 355 355 355
322 325 326 329 330 332 333 331 330 328 321 317 323 327 326 327 333 339 341 334 326 328 344 351 338 335 344 351 359 361 362 362 359 359 358 356 358 357 355 354 350 349 348 348 348 347 348 348 350 351 352 353 352 353 353 353 353 354 355 356 357 358 358 359 359 358 357 356 355 354 353 352 353 353 354 356 356 354 354 355 355 355 356 356 356 355
324 325 324 327 330 330 330 329 329 328 322 318 322 327 326 325 332 338 335 329 326 329 339 348 345 337 336 344 358 360 360 362 361 360 358 356 357 356 356 354 352 349 347 348 347 346 348 348 349 350 351 351 350 351 353 352 353 354 355 356 357 357 358 359 359 358 357 356 356 355 354 353 352 351 353 356 356 356 356 356 356 356 357 357 357 357
325 325 323 326 328 328 328 329 329 328 326 322 322 325 325 323 329 336 333 327 328 328 327 337 344 334 331 343 357 360 358 360 362 361 358 356 356 356 356 354 353 351 349 348 347 347 348 348 348 349 350 349 349 351 351 351 353 354 356 356 356 358 358 359 359 357 356 356 356 355 354 354 353 351 352 353 354 356 356 356 357 358 358 358 358 358
324 323 324 324 325 325 327 329 328 327 328 326 324 325 326 326 326 332 333 326 327 328 322 329 337 331 332 344 351 353 354 357 360 359 356 356 355 356 356 355 353 352 351 349 348 349 349 348 348 348 348 348 348 349 350 351 352 354 355 356 356 357 358 358 359 358 356 356 356 356 355 355 354 353 353 352 354 355 357 357 357 358 358 357 357 357
323 322 324 324 325 325 324 326 324 326 328 325 324 326 326 327 329 331 331 326 326 327 322 324 332 329 330 341 348 350 354 356 358 358 357 357 355 356 357 356 355 352 352 350 349 350 349 348 348 348 347 348 348 350 350 350 352 353 354 355 356 357 358 358 359 358 356 355 355 356 356 356 354 354 355 355 356 356 358 358 358 358 357 357 356 357
323 322 323 323 324 324 324 323 323 324 324 324 325 326 321 323 327 326 325 327 327 325 323 323 331 328 323 333 348 354 355 355 356 358 358 356 355 356 355 355 356 354 352 352 350 349 349 349 348 348 348 349 349 349 350 350 351 352 353 355 356 357 357 358 358 358 357 355 355 355 356 356 354 355 356 357 357 357 358 357 358 360 359 358 357 356
321 322 322 322 323 324 323 321 321 322 322 324 323 320 317 318 322 322 322 326 326 323 325 326 328 327 324 333 349 356 355 354 354 356 357 355 355 356 355 354 355 355 352 353 352 349 349 349 349 349 348 350 351 351 351 350 350 351 353 354 356 357 357 357 358 358 357 356 355 356 356 355 355 356 356 358 357 357 358 357 359 360 360 359 358 357
316 320 322 322 321 323 323 319 316 317 320 321 319 316 315 316 321 323 322 323 324 321 323 329 331 326 324 336 353 355 353 353 352 353 354 355 354 355 354 353 354 353 352 353 353 348 348 350 349 350 350 351 353 353 352 350 350 351 353 355 356 357 358 357 357 358 358 357 356 356 356 355 356 357 357 357 357 356 357 358 359 359 358 359 358 357
312 315 320 321 321 321 323 322 319 320 320 320 321 319 315 314 318 320 318 319 322 320 320 328 331 323 323 340 355 353 352 353 351 351 352 354 355 355 355 354 353 353 352 353 353 350 349 350 350 351 351 353 354 353 352 350 350 353 355 357 357 357 358 357 357 357 358 358 357 357 357 355 356 356 356 356 356 357 357 357 357 358 358 358 358 358
312 313 319 321 321 322 322 321 323 322 319 320 322 318 314 316 317 316 316 317 318 318 321 324 326 327 334 349 354 351 353 353 351 350 351 353 355 355 356 355 354 353 352 353 354 350 350 351 351 351 352 354 354 353 352 351 353 355 357 359 359 358 358 358 357 357 357 358 358 358 357 356 356 356 356 356 357 357 357 357 357 358 359 359 358 359
312 313 320 321 320 322 322 321 323 320 317 319 317 314 316 321 320 315 314 318 318 318 321 322 323 328 335 344 352 354 354 355 353 350 351 353 355 356 356 356 355 354 353 354 354 352 351 352 351 352 353 354 353 353 353 353 355 357 359 360 360 359 358 357 357 357 357 358 358 358 358 356 356 356 355 355 356 356 356 357 358 357 358 358 358 359
315 313 319 322 320 321 322 321 322 321 321 319 315 316 320 322 321 318 315 317 319 319 318 319 322 322 323 333 352 359 356 357 355 351 351 354 356 356 355 355 355 354 354 355 355 352 352 352 352 352 353 353 352 352 353 354 356 358 359 359 359 358 357 356 356 356 356 356 357 358 358 357 356 356 354 353 354 355 355 357 358 357 357 358 359 359
319 313 317 322 321 321 322 321 320 321 322 320 318 321 319 315 314 315 316 316 317 318 317 317 321 319 318 327 345 355 357 359 358 356 355 354 356 355 353 354 355 355 357 358 356 354 353 352 353 353 352 353 353 353 353 355 356 357 358 357 356 356 356 355 353 353 355 355 355 356 357 357 356 355 354 353 354 355 355 356 357 357 358 359 359 359
321 316 315 320 323 322 321 319 316 317 322 321 321 323 320 316 313 313 315 315 315 316 315 317 320 319 322 336 350 357 362 361 360 359 357 355 355 354 352 354 354 355 357 357 356 355 354 353 353 353 352 353 354 354 354 355 356 356 356 357 356 355 356 355 352 352 354 354 353 353 355 356 357 356 355 354 355 356 356 356 357 357 357 358 358 359
322 319 315 318 322 319 317 319 317 317 320 318 317 318 317 317 316 316 315 313 314 314 315 317 318 319 334 356 362 360 360 359 359 359 357 355 353 353 353 353 353 354 355 356 355 354 354 353 351 350 351 353 354 353 353 354 356 356 356 357 357 357 358 357 355 353 354 354 353 353 354 355 356 356 355 354 354 356 356 356 356 356 356 357 358 358
321 320 316 315 316 314 316 322 322 322 323 320 317 316 316 316 314 315 315 313 313 314 314 315 315 323 344 358 357 357 357 356 358 357 356 356 354 354 354 353 352 354 354 355 354 354 354 354 351 349 350 352 352 353 353 354 354 354 356 356 357 358 358 358 357 355 356 356 353 353 354 354 354 355 354 353 354 355 355 356 356 357 356 356 357 358
323 322 317 314 315 317 321 323 322 322 324 323 321 321 322 319 314 311 311 312 313 313 315 316 316 329 350 353 352 356 355 354 356 356 356 356 356 357 356 354 354 354 355 355 354 354 355 354 354 353 351 352 353 352 352 354 354 354 355 356 357 359 359 358 358 358 359 358 356 355 355 353 353 353 353 352 352 353 353 354 355 356 357 356 357 357
323 323 318 315 318 320 321 322 322 323 323 322 323 325 325 321 319 317 315 316 315 311 314 316 316 330 349 352 351 354 355 356 357 356 356 356 357 358 357 357 356 355 356 355 356 357 357 357 357 354 351 351 353 354 355 355 355 355 356 356 357 358 359 358 357 358 359 359 358 357 355 354 352 352 352 352 351 351 352 352 353 355 356 356 355 355
320 321 319 316 317 318 318 319 320 321 322 322 324 329 328 326 326 322 319 322 318 313 314 314 315 330 348 352 350 352 355 357 356 354 355 354 356 357 357 357 357 356 355 355 356 357 356 357 356 353 350 349 350 355 355 353 354 356 357 357 357 357 358 358 357 358 358 359 359 358 356 354 353 352 352 352 350 350 350 351 351 354 355 355 354 354
321 323 322 317 315 317 318 317 317 318 321 323 326 330 330 329 328 322 318 316 315 316 318 314 316 335 353 352 349 352 354 355 355 354 353 353 354 355 356 356 356 355 355 356 356 355 354 355 355 354 353 351 352 354 352 350 351 352 352 354 355 356 358 358 358 358 358 358 358 358 357 355 354 353 353 352 351 350 350 350 350 352 354 355 354 354
325 324 324 322 318 317 318 319 320 321 320 321 324 327 329 331 332 325 317 315 317 318 317 317 323 335 347 352 352 353 353 353 354 354 353 354 354 353 354 354 354 355 354 355 356 354 354 354 354 355 354 354 354 352 350 350 350 348 347 351 353 354 355 356 356 356 358 358 357 357 357 356 355 354 354 354 353 352 351 350 350 351 353 353 354 355
324 320 321 325 322 319 321 321 322 322 320 320 322 324 327 333 335 326 319 322 327 319 314 325 333 328 337 352 353 351 353 352 353 354 353 354 353 352 352 351 351 353 353 353 353 353 353 353 353 355 354 353 353 352 351 351 350 349 349 351 352 350 350 351 351 351 352 355 356 356 357 356 355 356 355 356 356 356 354 353 351 351 352 352 354 355
321 317 319 323 321 322 324 323 322 322 322 322 323 323 326 332 335 330 326 332 335 324 321 337 341 329 335 351 350 350 353 351 352 353 351 351 352 351 350 350 349 350 351 351 351 351 352 351 352 354 353 352 352 352 352 351 351 351 351 351 350 348 348 350 349 348 347 348 350 351 352 353 355 358 358 358 359 359 358 356 354 353 352 352 353 354
319 318 322 322 319 321 323 324 324 322 321 321 322 324 325 330 335 336 336 339 338 333 334 342 345 342 346 350 348 349 350 349 350 350 349 350 351 349 349 350 349 349 349 349 349 349 349 350 352 353 353 353 353 352 352 351 352 352 351 352 351 350 350 351 351 350 348 347 348 347 347 347 349 353 355 357 359 361 360 358 357 355 354 354 354 353
319 319 323 321 318 318 320 323 324 322 321 320 321 323 324 327 331 335 339 340 338 337 339 341 343 346 348 348 348 348 347 348 349 348 349 350 348 348 348 348 348 347 346 345 346 345 345 346 348 349 349 350 351 350 350 350 350 351 352 352 351 352 352 351 351 351 350 349 349 349 348 347 347 349 350 351 354 357 359 358 358 357 356 356 356 355
320 319 320 319 316 316 318 321 321 322 322 318 318 322 325 325 329 334 339 341 338 340 341 338 337 343 347 347 348 348 347 348 348 348 349 349 347 347 346 345 345 344 342 342 343 342 341 341 343 344 344 344 344 345 346 347 348 349 350 351 351 352 352 351 351 352 352 352 352 351 351 350 350 351 352 351 351 352 354 356 357 357 357 357 357 356
321 320 318 317 316 316 318 321 321 320 318 317 319 325 328 329 330 334 338 340 341 343 340 335 339 347 348 346 347 348 347 347 348 347 346 347 346 345 344 343 342 341 340 340 339 339 338 338 339 340 340 340 340 340 340 341 342 343 345 347 349 350 350 350 351 351 351 352 352 352 353 353 353 353 353 353 353 352 353 354 355 356 357 358 357 356
320 320 319 318 316 315 318 321 321 319 317 320 327 331 332 332 330 331 334 337 339 341 340 339 344 348 347 345 346 347 347 346 345 344 343 345 344 343 342 342 340 339 338 337 337 338 338 337 337 336 336 336 336 336 336 336 336 338 340 341 343 344 346 346 347 347 349 350 350 351 352 353 354 354 354 353 353 353 353 353 354 355 356 357 357 357
319 320 321 319 316 315 318 320 320 320 321 324 329 329 330 331 330 332 336 337 336 338 341 342 343 344 345 346 343 341 340 338 336 336 338 340 341 341 341 340 339 338 335 335 336 337 337 336 335 334 335 335 334 333 334 334 335 335 336 338 339 340 341 342 343 343 345 346 347 349 349 350 351 352 353 353 352 352 352 351 352 353 354 355 356 356
319 320 320 319 317 317 317 317 320 323 324 325 324 323 325 327 328 331 335 337 337 339 342 344 343 343 345 344 340 337 335 333 332 331 332 335 338 339 339 338 337 335 334 335 335 335 335 335 335 334 334 334 333 333 333 333 334 333 333 334 335 335 336 338 338 339 341 342 343 344 345 347 348 348 349 350 351 351 350 349 349 350 351 352 354 354
319 320 320 318 318 317 314 315 320 322 322 323 324 323 323 325 326 328 331 335 338 338 341 343 343 341 342 341 339 336 334 335 334 331 330 332 333 334 336 336 334 332 333 334 333 333 332 332 334 334 333 333 333 332 332 332 333 332 332 332 331 331 332 333 333 334 336 338 340 341 342 343 344 344 345 346 346 347 347 347 347 347 348 349 351 353
319 319 319 319 318 317 315 316 319 319 320 323 325 323 323 323 325 326 328 333 338 338 338 341 342 340 340 339 337 336 337 340 338 332 329 330 330 331 333 333 330 329 329 330 331 331 330 330 331 331 331 331 331 331 331 331 331 331 332 332 331 331 332 333 332 331 332 334 337 339 339 341 341 342 342 342 342 343 343 344 345 346 348 350 350 351
320 319 318 317 317 316 315 314 316 318 322 326 326 324 323 323 325 326 326 328 335 337 337 339 340 339 337 336 336 338 340 344 340 332 328 330 331 332 332 331 329 327 327 327 328 328 328 328 328 328 329 329 329 328 329 329 329 329 329 330 330 331 332 333 333 332 331 331 334 336 337 338 338 339 340 339 338 338 339 340 340 341 345 348 349 349
321 319 316 314 314 316 315 314 316 320 325 327 326 324 323 323 325 326 324 324 328 333 336 338 339 338 336 336 338 341 343 343 338 330 327 329 330 330 330 330 329 328 327 327 326 326 326 326 325 325 326 326 326 326 326 327 327 327 327 328 328 329 330 331 332 332 331 330 331 333 335 335 336 337 337 338 337 336 336 338 339 339 341 342 342 343
319 318 315 313 313 314 314 313 316 323 327 327 326 325 323 324 325 323 323 325 326 329 334 337 337 337 335 335 338 341 340 338 333 329 328 329 329 328 328 328 328 327 326 326 325 324 324 323 323 323 324 324 324 323 324 325 326 325 325 325 326 326 328 329 330 330 331 330 330 331 332 333 334 335 336 336 337 337 337 337 338 340 341 339 337 338
317 317 316 314 313 314 314 314 315 322 327 327 326 325 325 327 327 323 325 328 327 328 333 336 336 336 335 334 336 337 335 332 329 328 328 328 328 328 327 326 326 326 325 325 324 323 323 323 323 322 323 323 323 322 323 325 325 325 325 324 324 324 325 327 328 328 329 329 329 329 329 330 331 333 334 335 336 337 338 338 339 341 343 340 338 340
318 317 314 315 315 314 313 313 314 321 326 327 327 327 327 328 327 326 326 327 328 331 333 334 336 336 334 334 335 334 332 330 328 327 327 327 327 327 327 326 326 325 324 323 323 323 323 322 322 322 322 322 323 323 323 324 325 325 325 324 323 323 324 325 326 327 327 327 327 327 328 329 329 331 332 334 335 336 337 338 339 341 342 342 341 342
320 319 317 318 318 316 314 316 319 323 326 326 326 327 326 325 325 325 326 326 328 332 333 334 336 335 334 334 334 332 330 329 328 328 328 327 327 327 327 326 325 323 323 322 322 322 321 321 321 321 321 322 322 323 323 323 324 324 324 324 323 323 323 324 324 325 325 325 325 326 326 327 328 328 330 331 332 333 334 335 336 337 338 339 339 339
323 324 323 322 321 320 319 321 323 325 325 325 325 325 325 324 324 324 326 327 329 331 333 334 334 334 333 334 332 330 330 329 328 328 327 326 326 327 327 325 324 323 322 322 322 322 321 320 321 321 321 321 321 322 322 322 323 323 323 323 323 323 323 323 323 324 324 324 325 324 324 324 325 326 327 328 329 330 331 332 333 334 334 334 336 337
324 325 325 324 323 322 322 323 325 325 326 325 324 324 324 324 323 324 326 327 328 330 332 332 332 333 332 331 331 331 330 329 328 327 325 325 326 327 326 324 322 321 320 320 321 321 320 320 320 320 321 321 320 321 321 321 322 323 322 322 322 322 323 323 323 324 324 324 324 323 323 323 322 322 324 325 326 327 328 329 330 331 331 332 332 333
323 322 323 324 323 321 322 326 327 326 325 325 324 324 325 324 324 324 325 327 327 329 331 331 331 331 330 330 331 331 329 328 328 326 325 325 326 326 325 323 322 321 320 320 320 320 320 319 319 320 320 321 320 320 320 320 321 322 322 322 322 322 322 322 323 324 324 324 323 323 323 322 322 322 321 322 323 324 325 326 327 328 329 330 330 330
324 322 323 323 322 322 324 326 326 325 325 325 325 325 325 325 325 323 324 326 327 329 330 330 330 329 328 328 328 328 327 327 327 326 325 325 326 325 324 323 323 323 322 321 320 321 320 320 319 319 320 320 320 320 320 320 320 320 321 321 320 320 321 321 321 322 323 323 323 322 323 322 322 322 322 321 322 322 321 322 324 326 326 326 326 327
323 322 323 324 322 322 324 325 325 325 326 325 324 324 325 325 325 324 322 324 326 328 329 329 329 329 329 328 328 327 326 326 327 326 325 324 324 324 323 323 323 323 322 321 321 321 321 321 320 320 319 319 319 319 319 320 319 319 320 319 319 319 319 320 320 321 322 322 322 322 322 322 321 322 321 322 322 322 320 319 319 323 325 322 318 319
321 321 323 322 320 321 325 326 325 325 326 325 324 324 324 324 325 324 323 323 324 326 328 328 328 328 329 328 328 327 326 326 327 325 325 324 323 322 321 322 321 321 321 321 321 320 320 320 319 319 318 318 319 319 318 318 318 318 318 318 318 319 319 319 320 321 321 321 321 320 321 321 321 321 321 321 322 322 322 320 317 317 319 319 316 314
322 323 323 322 322 323 325 326 325 325 325 325 324 324 324 324 324 325 324 323 322 323 326 327 326 326 326 327 327 326 326 327 327 326 325 325 323 321 320 319 317 317 318 320 321 320 319 319 319 318 318 318 318 317 316 316 315 315 315 316 316 317 318 318 319 319 319 319 319 318 320 320 320 321 321 321 321 322 323 323 320 317 316 316 316 315
Wind_Speed
8 8 8 9 10 13 13 9 4 4 4 3 5 5 6 6 3 2 7 11 11 7 7 10 9 7 7 9 11 12 11 12 12 12 11 12 12 11 11 12 12 12 11 14 16 16 15 15 15 14 13 14 13 12 13 13 12 11 10 10 10 10 10 10 10 9 9 9 9 9 9 8 8 7 7 7 7 7 7 8 8 8 7 7 7 6
7 8 10 12 11 11 9 3 2 3 2 4 5 6 7 6 4 2 5 10 10 5 5 9 9 8 8 8 11 12 13 13 13 13 13 13 13 11 12 12 12 11 11 14 15 16 16 15 16 15 14 15 14 14 14 13 12 12 11 11 11 10 10 10 10 9 9 9 8 8 8 8 9 9 8 7 8 7 8 9 9 8 7 8 7 7
8 8 11 13 8 7 4 2 4 5 3 5 5 5 5 5 5 3 5 9 9 4 3 8 7 7 8 7 10 13 13 13 13 13 12 13 13 12 12 12 12 12 11 13 14 16 17 16 17 16 14 15 15 14 14 14 13 12 12 11 11 10 10 10 10 9 9 8 8 7 7 7 8 9 7 7 8 8 8 9 9 8 9 8 8 7
7 8 11 11 7 7 6 4 5 5 5 6 5 6 5 7 5 3 5 8 8 3 1 6 7 5 8 7 8 11 12 11 12 11 10 11 12 12 13 12 12 13 13 13 14 16 17 17 17 16 15 15 15 14 15 15 14 13 13 12 11 11 10 10 10 9 8 8 7 5 6 5 6 7 7 7 8 8 9 10 9 9 9 8 7 7
6 4 6 9 8 9 8 6 7 6 7 6 6 7 2 7 4 3 5 7 7 4 3 5 6 5 9 9 8 10 10 11 12 11 10 10 11 11 13 12 13 13 13 13 14 15 17 18 17 16 15 15 15 15 15 15 15 14 14 14 13 11 10 10 10 10 8 8 8 7 6 6 5 6 7 7 8 8 9 9 9 9 9 8 7 8
5 4 5 9 10 10 8 8 9 7 7 6 7 6 1 4 5 6 6 5 4 5 7 8 5 4 9 11 10 10 10 11 12 14 15 13 11 11 12 13 13 13 13 13 14 15 17 18 18 17 16 16 16 15 15 15 15 14 14 15 14 12 11 10 11 11 9 9 10 8 8 8 7 7 7 8 9 9 8 8 9 9 9 8 8 7
4 7 7 10 11 11 9 9 8 7 8 5 6 5 2 2 5 7 5 4 4 2 5 9 6 2 4 9 12 12 12 13 12 15 17 14 12 12 12 12 13 14 13 13 13 15 17 18 19 18 17 17 16 15 15 15 15 15 15 15 15 13 11 10 11 12 11 10 10 9 8 8 8 7 7 6 7 8 7 7 8 8 8 8 7 7
5 8 7 9 12 11 9 9 8 8 9 2 5 2 5 5 6 7 4 3 5 2 3 8 7 3 3 6 11 14 13 14 14 15 16 15 15 14 13 13 14 15 14 13 13 14 16 18 19 19 18 17 16 15 14 14 15 16 15 16 16 14 12 11 11 12 12 11 10 10 9 8 7 7 8 7 6 7 7 6 7 7 7 7 7 7
7 9 8 9 10 9 9 9 7 8 9 1 6 1 3 4 5 6 5 4 5 4 5 7 6 5 3 4 9 13 14 14 15 17 17 17 18 15 13 14 15 15 15 14 14 15 17 19 19 19 18 18 17 15 14 14 15 16 16 16 16 15 13 12 12 13 13 11 11 10 9 8 7 6 7 7 7 6 6 6 6 6 6 7 6 6
6 7 6 9 8 6 9 8 6 9 9 1 2 4 4 4 5 5 6 6 4 5 7 7 9 6 3 5 8 11 12 12 14 15 16 17 18 15 13 13 14 15 14 14 14 16 18 19 20 19 19 19 17 16 15 14 14 16 17 17 17 16 14 13 13 13 14 13 11 11 9 8 7 6 6 6 6 6 6 6 6 6 5 6 6 6
6 2 2 7 6 2 5 6 6 9 8 1 2 6 6 6 5 3 5 5 4 7 9 8 10 8 4 6 7 7 7 9 10 11 13 15 17 16 13 12 14 14 13 14 14 16 19 19 19 19 19 19 17 16 16 15 15 16 17 18 18 17 15 14 14 14 14 14 13 12 10 9 8 7 6 6 6 6 6 6 6 6 6 6 7 7
7 5 4 6 6 3 4 5 6 7 6 4 6 7 7 6 4 4 5 4 6 8 6 5 8 9 6 3 6 6 5 6 7 9 13 16 17 17 16 14 13 12 12 13 13 15 17 18 19 20 19 18 17 16 16 16 15 15 16 18 18 17 16 15 15 15 15 15 14 13 12 11 10 8 7 6 6 7 7 7 6 6 6 6 7 7
7 8 6 7 7 7 7 6 6 6 6 6 7 7 8 7 6 7 7 6 8 7 4 3 6 8 7 1 5 7 6 6 6 6 10 15 17 17 18 17 14 12 12 12 13 14 14 16 19 20 19 17 17 17 17 17 17 16 16 18 18 18 17 16 15 16 16 15 14 14 13 12 11 9 8 7 7 7 7 7 7 7 7 7 7 8
7 9 9 8 7 9 10 7 7 7 8 9 8 8 8 8 8 9 8 7 8 9 6 3 3 6 6 2 4 5 4 4 5 5 7 11 15 16 17 18 17 15 14 12 13 14 14 16 19 19 18 17 17 18 18 17 17 17 17 18 19 18 18 17 16 16 16 16 15 14 13 12 12 11 10 9 8 8 8 7 7 7 7 7 7 8
6 6 10 11 7 10 13 10 6 5 7 9 9 8 9 8 8 9 9 8 8 9 8 6 3 5 5 3 4 3 2 3 4 6 7 8 11 14 15 16 17 18 17 14 13 15 15 18 19 18 18 18 18 19 18 17 17 17 17 18 19 18 18 18 17 17 16 16 15 15 14 13 12 11 11 10 9 8 8 8 7 7 6 6 6 7
5 2 7 8 4 8 14 12 9 6 5 8 8 9 9 9 8 7 7 8 8 8 7 6 5 3 2 5 5 3 3 3 4 6 8 8 10 12 13 14 15 17 18 15 14 15 17 20 20 19 19 19 19 18 17 17 18 18 17 18 19 19 19 19 18 18 17 16 15 15 15 14 13 12 11 10 9 9 9 8 8 7 7 6 6 6
5 3 9 8 6 8 10 10 11 9 5 5 8 10 8 7 9 8 8 7 7 8 7 6 7 5 3 5 4 3 4 3 3 6 9 9 10 12 12 12 13 15 17 15 14 14 17 19 19 19 19 19 18 17 17 17 18 19 18 19 19 19 18 18 19 18 17 16 16 15 15 15 14 13 13 12 11 11 10 9 9 9 8 8 7 7
4 4 9 7 9 9 4 5 11 11 8 4 6 9 8 5 7 7 7 7 7 8 6 8 10 8 6 4 3 5 5 4 4 6 9 10 10 11 11 12 14 15 15 14 14 14 16 18 19 19 18 17 17 17 17 18 18 18 19 19 20 20 19 19 19 19 18 17 16 16 16 16 15 14 14 13 12 12 12 11 10 10 9 9 9 8
4 4 7 5 6 9 7 5 8 10 12 8 4 5 8 6 7 6 6 8 9 9 7 9 10 9 8 5 5 6 5 5 5 5 7 9 10 9 10 13 15 15 13 12 12 11 12 15 16 15 15 15 15 16 16 17 17 17 17 18 19 19 20 19 18 18 18 17 16 16 16 16 16 15 14 13 12 12 13 12 11 11 10 10 10 9
3 4 4 6 5 8 8 8 8 9 12 10 6 5 7 6 7 7 7 8 7 8 9 9 9 8 5 3 5 6 5 4 4 5 5 7 8 8 9 12 14 14 12 12 11 10 11 13 14 12 11 12 13 13 14 15 16 16 16 16 17 17 18 18 18 18 18 17 17 16 15 16 16 16 15 14 13 13 13 12 12 11 11 10 10 11
3 4 3 6 7 7 8 7 7 5 9 11 8 7 8 6 6 6 8 9 8 8 8 8 8 6 2 3 5 7 5 3 3 4 4 4 5 6 7 10 12 13 13 12 12 11 11 12 13 11 10 10 11 12 13 13 14 14 14 14 15 15 16 17 17 17 17 17 17 16 15 16 16 16 16 16 15 14 13 13 12 12 11 11 11 11
2 4 4 4 6 6 4 2 4 5 3 8 9 9 9 8 6 6 8 9 8 8 7 8 8 3 4 3 4 6 4 3 4 5 4 3 4 5 6 8 10 11 11 12 13 11 11 12 11 11 10 9 10 12 12 13 14 14 14 14 14 15 15 16 16 16 15 15 16 16 16 16 15 15 15 16 16 16 15 14 13 12 12 11 12 12
3 4 5 4 3 1 4 4 1 2 2 5 5 6 7 8 8 8 8 7 8 9 7 6 6 2 4 3 4 5 4 4 5 5 5 4 3 4 5 6 8 9 10 11 12 11 12 13 12 12 11 10 10 11 12 12 12 14 14 14 14 15 15 15 15 15 14 14 15 16 16 15 15 15 15 16 16 17 16 15 14 13 13 12 12 12
2 3 4 4 2 3 5 5 5 4 4 6 3 2 4 6 6 6 5 4 6 11 9 6 7 3 4 4 4 5 5 4 4 5 5 5 4 4 5 6 7 9 10 11 11 11 14 15 14 14 14 11 8 8 10 10 9 10 12 14 14 15 15 15 15 15 14 14 14 15 15 15 14 14 15 15 16 16 16 16 15 14 14 14 13 12
2 2 3 5 5 5 6 6 7 6 5 5 2 1 3 5 7 6 6 5 5 9 10 9 7 3 5 4 5 6 6 5 4 4 4 5 4 4 4 5 6 8 10 11 11 12 14 14 12 11 14 14 9 6 8 10 10 10 10 11 12 13 14 15 15 15 15 14 14 14 14 15 14 14 14 14 14 15 16 16 15 14 14 14 14 13
3 2 2 5 6 6 5 4 4 4 3 2 1 1 2 4 6 6 6 7 7 7 8 10 6 3 6 6 6 7 7 6 4 3 4 5 5 4 3 3 4 6 8 10 11 12 13 13 11 9 11 14 12 10 10 10 11 12 12 10 9 10 12 13 14 14 14 14 14 14 14 14 14 13 14 14 14 14 14 15 15 14 14 14 14 14
4 3 3 5 6 5 3 3 1 2 1 3 2 2 2 3 4 6 7 7 6 5 7 9 6 4 6 8 8 8 8 6 5 5 5 6 5 5 4 4 4 4 5 7 7 8 11 11 11 10 10 11 12 12 13 14 15 16 16 13 11 12 12 13 15 15 13 13 14 14 14 14 14 13 13 13 13 13 13 14 15 14 14 14 14 15
4 4 4 6 6 6 7 7 2 1 3 4 5 5 4 5 3 6 8 3 4 6 7 5 6 7 7 9 10 9 8 7 7 6 6 6 6 6 6 6 6 6 6 7 6 6 8 9 9 11 11 10 11 11 12 14 16 17 17 16 16 18 18 16 17 18 16 15 14 13 13 13 13 13 13 12 11 12 13 13 14 14 13 13 14 15
5 4 4 5 6 6 6 6 5 2 2 4 5 6 7 7 6 4 5 3 4 5 3 3 4 8 6 9 10 9 8 7 7 6 5 7 8 7 8 8 8 8 8 8 8 6 6 6 7 10 12 12 13 13 13 14 14 14 16 17 19 21 21 19 19 20 20 20 19 18 16 14 13 12 11 11 12 12 12 13 13 14 14 14 14 14
3 3 3 5 7 6 5 3 4 7 6 5 5 6 6 6 7 5 3 4 4 4 4 3 2 2 2 8 10 9 8 8 7 6 5 7 8 7 8 8 8 9 9 9 9 8 8 7 7 7 8 10 12 14 15 14 15 15 14 15 17 18 19 19 19 20 21 22 23 23 22 20 19 17 15 13 13 12 13 13 14 14 15 14 14 13
2 2 2 5 7 8 8 4 3 6 8 8 7 6 5 5 7 5 4 6 4 3 2 2 4 3 5 7 9 9 9 8 9 8 7 7 8 8 8 8 9 10 10 9 9 9 9 10 10 10 9 7 7 8 9 9 11 14 15 15 15 15 16 18 18 19 20 21 21 22 23 23 23 22 21 20 18 16 15 14 14 14 14 14 14 14
3 2 2 5 7 7 8 7 3 4 6 9 10 6 3 4 6 5 4 5 4 3 2 4 5 3 5 7 8 9 8 9 10 9 7 7 7 8 9 9 10 11 10 10 9 9 9 9 10 11 11 11 11 9 7 7 5 6 8 11 13 15 15 17 17 18 19 19 18 17 19 21 20 19 19 20 21 21 19 16 15 15 14 14 14 14
3 4 3 5 6 5 7 6 3 1 4 7 6 3 2 2 4 4 4 5 4 4 3 2 1 3 5 7 8 9 8 9 9 7 6 7 8 9 10 10 11 11 11 10 10 10 10 10 11 12 12 12 13 12 10 10 10 8 7 5 5 8 10 10 11 12 13 14 15 15 16 17 16 16 18 18 19 21 21 19 17 16 16 15 14 15
2 5 3 3 4 5 5 5 4 6 5 2 2 4 4 4 5 4 5 6 4 3 3 1 2 2 5 8 8 8 8 8 8 5 4 7 8 8 9 11 11 11 11 11 10 10 11 11 12 13 14 15 16 15 15 15 14 12 10 10 9 8 7 7 6 4 4 5 8 10 12 13 13 13 15 17 17 18 19 18 17 17 16 15 15 15
3 3 3 2 4 4 4 5 8 7 3 4 5 5 5 5 6 4 4 4 4 3 3 2 2 2 5 7 8 9 9 9 9 8 6 5 8 9 10 11 12 12 12 11 10 12 13 13 12 11 13 15 16 16 16 17 17 16 15 14 14 12 11 10 10 8 7 6 4 2 4 6 9 10 11 14 16 17 17 17 17 17 16 14 14 16
5 3 3 2 3 3 4 7 7 3 4 6 5 5 6 4 5 3 0 1 3 2 2 1 2 3 6 8 9 10 10 10 10 9 9 6 6 8 9 11 12 12 13 12 11 12 13 12 12 11 11 13 14 14 14 14 15 16 17 18 19 18 17 16 14 11 9 8 7 6 5 4 3 3 4 8 12 15 17 18 19 19 18 16 15 15
5 4 3 3 3 4 5 5 4 3 4 6 5 5 5 4 5 5 2 0 3 2 1 3 4 6 8 9 9 9 10 9 7 6 7 8 8 8 10 13 14 13 14 15 14 14 12 12 13 12 12 13 13 13 12 12 12 14 15 17 19 18 17 17 16 13 12 10 9 8 7 6 5 4 2 2 4 5 8 13 16 17 19 19 18 16
3 3 3 3 3 3 5 5 4 5 4 3 4 5 4 3 3 5 4 1 3 3 1 4 5 7 9 9 9 11 10 8 5 2 4 7 8 9 12 15 16 15 15 14 14 14 13 12 13 13 12 13 14 13 12 11 11 13 13 13 14 14 14 14 13 13 13 12 10 9 8 7 7 6 6 5 6 7 5 3 5 10 14 15 14 13
2 2 3 5 4 4 5 5 4 4 1 5 5 5 5 3 2 4 5 1 3 5 2 2 4 8 9 8 9 11 9 7 6 4 5 7 8 8 10 13 15 16 16 14 14 14 13 12 12 12 12 12 13 12 11 11 12 12 11 11 11 12 12 12 11 11 12 12 11 10 10 9 8 7 7 6 7 9 10 9 8 6 8 8 7 6
2 2 3 5 4 2 4 5 2 1 4 7 7 7 6 3 2 5 6 1 5 7 4 1 4 8 8 7 7 6 4 3 4 5 5 7 7 8 9 12 14 15 16 15 15 14 13 12 12 12 12 11 11 10 10 11 12 11 11 10 10 11 12 11 10 10 10 11 11 11 11 11 10 9 8 7 6 7 8 9 9 9 7 5 4 4
1 1 2 3 3 1 3 5 1 3 5 7 9 8 6 3 4 5 3 2 6 8 6 2 3 8 10 9 7 3 2 5 8 8 7 7 7 7 8 11 13 14 15 15 15 14 13 11 11 11 11 9 9 9 9 11 12 11 10 10 10 11 10 9 9 10 11 11 11 11 12 12 11 10 9 8 7 6 6 6 6 6 6 6 5 4
1 1 1 2 2 1 2 4 1 4 3 8 9 7 6 4 4 2 4 5 7 8 5 3 4 7 9 9 7 4 4 9 12 11 10 9 9 9 11 12 12 13 13 12 12 12 11 11 11 11 10 9 8 9 9 10 11 10 9 10 10 9 8 8 9 10 10 11 11 12 12 12 11 10 10 10 9 8 7 6 5 6 6 6 6 7
2 2 1 1 1 2 3 3 2 2 4 10 9 4 5 4 2 4 6 6 7 6 4 4 4 6 8 8 7 6 9 11 11 12 12 12 12 13 13 12 10 10 10 9 9 10 10 10 10 10 9 9 9 9 9 10 11 10 9 9 9 7 7 7 8 9 9 10 11 10 10 11 11 10 10 10 10 10 9 8 7 7 8 8 8 9
1 3 2 2 2 3 2 0 2 3 5 8 7 3 5 5 4 5 6 6 6 5 3 3 3 6 7 6 7 9 11 11 10 11 12 12 12 14 15 14 11 9 9 8 7 7 7 9 10 10 10 9 9 9 9 9 10 9 9 8 7 7 7 7 7 7 8 8 8 8 9 9 10 9 9 10 10 10 10 10 9 9 8 8 8 8
2 3 4 2 2 3 3 3 4 2 3 5 4 4 5 4 4 5 5 5 5 4 2 2 3 5 5 6 8 9 8 8 9 9 10 10 11 13 14 14 13 12 11 8 7 5 6 8 10 10 10 10 10 9 8 8 9 9 8 7 6 6 7 7 6 7 7 7 7 7 7 7 8 8 8 8 9 9 9 9 9 9 8 8 8 8
3 1 2 2 1 1 1 1 2 2 3 4 3 3 4 4 5 5 5 4 4 4 3 2 1 3 5 7 9 8 6 5 5 7 9 8 9 11 12 13 12 12 12 11 8 6 6 8 10 11 11 10 9 8 8 7 7 8 7 6 6 6 6 6 6 6 6 6 6 6 6 6 6 7 7 7 7 8 8 8 8 8 8 7 7 7
4 1 3 2 2 1 1 3 3 2 3 4 2 3 3 5 6 6 5 5 5 4 3 2 1 3 6 9 11 8 6 6 5 5 6 7 7 9 10 11 11 12 12 12 10 8 6 8 10 11 10 8 7 7 7 6 6 6 6 5 6 6 6 6 6 6 5 5 5 6 6 6 6 6 6 6 6 6 6 6 6 6 6 6 6 5
4 2 3 2 2 3 0 4 4 3 3 4 3 3 4 5 6 7 6 5 5 4 4 3 3 4 7 11 12 10 9 9 8 7 5 4 6 8 8 7 7 8 9 10 9 7 7 9 10 9 7 6 6 6 6 6 6 6 6 6 6 6 6 5 5 5 5 5 5 5 5 6 5 5 5 6 6 6 7 6 5 5 6 6 5 4
2 3 1 0 3 4 1 4 4 3 3 5 5 6 5 5 6 7 7 7 7 6 5 4 3 4 7 11 13 13 11 10 11 10 7 5 5 6 6 5 4 4 6 7 6 5 7 9 9 8 7 6 5 5 5 5 6 6 6 6 5 5 5 5 4 4 4 4 5 5 4 4 5 5 5 5 5 6 7 7 6 5 5 6 5 3
3 4 1 2 5 4 1 3 2 1 1 4 6 6 6 6 6 7 8 9 8 7 5 5 4 4 7 10 13 14 13 11 12 13 11 9 9 10 9 8 6 5 4 4 4 6 7 7 7 7 6 6 5 4 5 5 5 6 6 6 5 5 5 4 3 3 4 4 5 5 5 4 5 5 5 5 4 4 5 6 6 5 4 4 4 3
3 3 2 3 4 2 4 4 2 1 1 4 5 4 5 5 5 7 8 8 8 8 6 5 4 4 5 6 8 11 12 11 13 15 13 13 14 15 15 15 13 10 7 5 5 6 6 6 7 7 6 5 5 5 5 5 5 6 6 6 6 5 5 4 4 4 4 5 6 6 6 5 5 5 5 5 5 4 2 3 4 4 4 4 4 3
Wind_Direction
194 199 197 205 203 197 203 218 256 351 341 251 201 194 192 187 195 119 126 151 173 187 165 176 190 177 172 176 179 181 186 198 196 186 187 184 182 182 185 185 180 182 178 171 173 175 174 172 168 168 170 171 171 173 174 176 178 175 174 170 168 172 167 164 164 165 170 170 170 172 170 167 168 168 168 168 165 161 159 161 169 173 173 173 170 167
200 213 200 205 205 194 201 219 242 271 293 249 221 199 203 188 158 130 134 149 179 210 165 174 194 184 179 182 179 177 181 196 199 188 187 187 185 184 186 188 184 181 177 173 172 176 176 172 170 169 171 173 172 173 176 179 180 179 179 175 173 175 174 173 171 171 177 177 176 175 174 169 162 163 168 167 165 157 155 162 166 167 170 167 165 166
198 220 205 198 190 173 191 206 213 240 257 242 228 218 214 171 138 134 135 150 179 220 166 178 204 186 173 176 174 178 186 197 201 196 192 190 188 186 187 189 187 182 179 178 176 178 177 173 173 172 174 177 176 176 179 181 181 180 182 180 178 178 178 179 175 175 179 179 179 173 170 165 154 158 161 152 154 151 150 157 160 163 166 163 163 168
192 216 205 183 164 179 193 198 213 227 231 235 233 229 199 153 167 174 146 156 175 208 131 182 213 189 166 172 178 188 193 194 202 209 207 198 194 191 188 190 191 185 180 181 181 181 180 178 176 175 176 179 180 181 183 184 183 183 184 184 183 181 181 183 179 178 177 175 174 165 159 154 139 146 148 143 149 151 149 153 158 163 164 161 165 170
196 184 178 162 170 200 200 196 214 220 211 216 236 245 173 130 145 119 137 155 168 200 208 189 215 205 181 185 187 190 194 193 195 204 210 206 205 199 190 192 194 190 184 184 185 183 182 181 178 177 178 180 182 184 185 186 186 185 185 184 185 185 184 186 183 178 173 171 171 163 156 153 141 144 152 157 156 155 156 158 159 163 165 165 167 171
188 115 154 175 183 200 207 205 211 223 219 199 215 244 4 108 115 109 143 169 188 209 199 196 216 205 185 192 193 182 188 196 190 193 203 206 210 208 195 191 194 193 189 188 189 185 183 182 180 179 180 183 184 186 188 188 188 187 184 183 186 186 186 187 184 179 173 172 174 170 164 164 162 160 163 165 159 158 161 158 155 158 164 166 167 172
159 134 182 193 187 195 210 215 202 219 240 200 177 205 228 193 142 129 152 200 233 225 176 201 225 212 184 198 195 181 184 194 190 194 202 202 205 209 202 195 193 193 191 190 190 189 185 182 182 181 183 186 185 185 187 187 188 187 184 184 185 187 189 187 184 180 178 178 179 179 175 170 170 167 163 160 152 151 154 146 147 154 160 164 166 168
147 144 172 186 192 197 207 215 191 208 242 182 99 167 227 224 186 163 170 227 249 274 175 207 226 249 241 210 190 183 185 191 194 198 199 199 203 206 206 200 195 195 194 190 189 192 189 185 186 185 186 189 188 184 185 186 186 185 185 185 184 187 189 188 185 183 183 184 183 184 181 176 177 170 159 157 149 143 146 144 147 154 157 162 164 164
169 179 172 175 193 202 208 215 188 205 237 137 75 293 247 253 228 187 195 239 250 255 230 202 207 231 222 188 185 186 192 195 197 201 198 199 202 201 205 205 199 197 196 193 190 192 191 189 190 189 188 192 189 183 185 186 184 183 185 186 186 188 189 189 186 186 190 190 186 187 185 182 183 175 163 164 159 149 150 150 151 154 157 165 169 168
163 196 184 183 197 199 201 208 190 208 231 91 82 247 239 254 252 206 213 238 230 250 250 198 194 225 199 168 181 184 197 202 199 201 200 200 199 193 195 207 207 198 194 197 195 193 192 192 194 193 192 193 189 185 187 187 183 182 184 186 189 190 190 191 189 189 193 193 191 192 192 188 185 181 174 171 166 162 163 162 163 165 166 175 180 181
119 134 203 207 219 208 181 189 199 220 238 258 217 234 226 222 237 227 229 244 230 240 245 200 194 230 229 169 170 182 204 206 196 194 196 198 196 186 185 202 211 203 192 195 197 194 194 195 195 195 195 193 189 187 186 187 185 183 183 186 190 192 192 192 191 192 195 195 196 197 197 196 192 188 185 183 183 180 180 181 178 178 182 186 189 191
155 174 179 198 220 222 178 180 196 216 234 241 226 226 225 212 215 233 222 227 239 233 227 193 197 229 243 167 144 162 178 182 189 189 191 197 195 187 185 192 204 208 196 193 197 196 194 195 196 197 196 192 190 188 186 189 189 185 184 185 188 193 194 194 194 194 196 197 199 201 201 202 198 196 194 194 198 194 194 197 192 187 188 193 198 199
192 204 180 171 193 207 209 192 179 195 210 221 223 218 221 210 202 225 219 213 235 230 204 205 212 225 244 215 125 147 151 154 174 185 189 196 195 191 189 187 190 203 202 193 195 196 195 196 196 197 196 190 190 191 189 191 192 187 186 186 188 192 195 196 196 197 198 198 199 201 202 203 202 202 201 199 202 201 201 204 201 198 197 199 203 205
190 196 190 190 186 198 217 211 179 186 199 208 215 210 213 214 207 217 219 217 232 228 207 196 220 228 227 179 109 141 161 165 183 193 191 193 194 191 189 186 183 193 202 199 194 194 194 197 197 197 195 190 191 194 192 193 193 190 187 187 189 192 194 197 198 198 200 201 201 201 201 203 203 203 204 203 204 204 204 208 208 208 207 207 209 210
208 188 185 198 190 180 203 228 227 199 190 202 214 217 219 225 221 221 220 218 227 228 207 176 191 232 211 140 101 125 177 196 211 209 195 188 189 188 188 187 183 187 198 200 194 192 191 194 196 193 192 193 195 196 194 194 192 189 187 186 189 192 194 197 199 200 201 203 203 202 201 203 205 205 206 207 207 206 207 212 213 215 217 216 214 213
243 230 155 178 182 175 195 219 236 235 201 194 208 219 223 228 229 238 244 238 236 233 212 189 211 240 147 136 134 149 177 190 215 207 194 185 178 178 184 187 185 188 194 196 194 192 189 192 195 192 192 196 197 197 196 192 190 189 186 184 188 193 195 197 199 201 203 204 205 205 204 205 206 208 209 209 209 210 211 214 216 219 223 222 218 214
236 191 135 162 196 197 206 208 207 226 228 177 198 218 221 231 240 244 245 244 251 246 218 197 224 231 176 163 155 173 187 174 187 192 187 179 170 173 180 183 186 190 191 191 194 193 189 191 193 192 194 197 198 199 197 191 189 188 186 185 187 192 196 199 201 203 204 204 206 207 207 208 209 210 212 211 211 212 214 216 219 221 221 221 220 215
269 195 141 167 198 186 210 222 201 219 234 199 202 211 201 228 256 252 238 219 223 245 225 196 220 229 208 194 165 181 181 152 153 169 173 171 169 174 178 178 184 187 187 187 190 192 190 190 193 194 197 199 200 200 196 191 190 190 190 189 188 191 196 200 202 204 205 205 207 208 208 210 211 212 215 216 215 215 215 215 218 221 219 217 217 214
290 243 150 163 188 161 168 215 205 209 226 245 277 208 190 212 230 222 234 225 211 232 229 198 213 230 219 197 169 169 150 120 127 139 158 167 171 178 177 176 180 179 176 179 181 183 183 183 183 186 193 196 197 197 194 191 191 193 194 194 194 195 198 201 203 204 205 205 207 208 209 210 211 213 216 218 218 216 216 217 218 218 217 214 213 211
279 272 169 162 160 157 176 204 205 189 203 233 275 231 207 228 230 207 221 237 224 229 227 203 206 223 219 165 136 135 114 109 132 141 156 163 168 180 177 175 177 173 173 179 177 170 169 168 164 168 185 189 189 191 189 189 192 194 194 195 197 197 196 201 204 204 205 206 208 208 208 209 211 213 216 218 219 217 216 219 220 218 215 213 211 207
265 266 214 161 155 180 189 196 224 207 186 202 220 220 210 220 238 223 218 227 235 237 227 219 218 205 130 72 104 114 105 110 136 138 151 162 166 171 172 175 176 173 177 182 178 168 156 149 149 160 180 186 186 188 187 188 190 189 190 191 193 193 194 199 204 205 206 207 208 209 209 211 212 214 217 217 217 217 217 219 220 220 217 212 210 208
298 261 254 203 186 203 168 117 295 304 228 202 205 216 214 206 217 227 218 214 229 246 240 238 234 181 92 65 102 107 111 137 148 143 147 158 158 155 164 175 174 172 176 177 176 169 145 133 142 159 175 182 183 185 184 185 185 185 187 188 188 189 191 197 201 204 206 207 209 210 211 213 213 213 217 218 218 218 218 218 217 219 220 216 212 210
333 272 264 244 214 178 76 73 312 308 271 222 211 228 224 210 211 218 219 212 218 236 245 258 255 159 91 79 98 106 124 145 155 158 152 145 139 149 162 164 163 169 174 173 175 168 145 134 139 148 160 172 180 185 186 184 184 186 187 186 187 189 190 194 197 199 202 206 209 211 213 216 216 215 215 218 219 220 219 217 215 216 220 220 216 212
304 262 255 244 207 119 108 124 144 156 209 214 212 271 253 240 242 244 255 261 230 224 221 234 244 198 108 108 120 119 121 130 151 158 152 143 133 148 159 153 158 170 173 170 167 158 142 137 139 144 154 166 177 180 173 168 173 184 189 189 191 191 190 191 194 196 199 203 207 212 216 218 218 218 218 219 220 220 220 220 216 214 217 221 220 214
284 264 244 234 216 183 169 160 152 159 186 196 194 316 284 272 272 270 274 283 255 230 217 221 231 173 117 139 152 142 135 132 142 152 148 143 129 124 133 144 157 167 169 165 161 154 146 142 144 148 159 171 176 165 154 156 163 173 182 188 191 193 191 188 190 192 196 201 206 211 217 220 220 220 220 221 221 220 219 220 219 215 214 218 220 215
276 264 236 234 227 214 206 177 159 169 168 153 112 359 301 269 250 250 249 238 239 233 221 233 239 115 128 167 165 162 162 139 127 149 144 131 124 115 111 126 144 158 167 167 166 165 160 157 157 154 160 168 172 174 178 182 185 188 191 191 192 194 192 187 186 189 194 199 202 206 212 218 220 220 221 222 224 223 219 219 220 217 214 215 217 217
269 249 237 250 246 220 173 105 45 300 155 113 69 44 337 305 257 242 239 236 247 238 224 234 230 146 159 181 171 170 174 152 141 164 151 127 124 125 116 103 101 122 150 153 156 168 173 176 177 171 165 163 165 175 188 193 198 206 208 206 204 201 196 192 188 186 187 192 197 201 206 213 217 220 221 221 223 226 223 220 219 218 217 216 216 216
269 244 233 249 239 199 161 140 141 334 46 49 33 40 20 353 312 240 234 271 311 250 226 221 214 207 191 176 170 168 171 166 160 165 156 135 129 124 114 100 95 104 114 115 118 143 164 176 183 179 173 172 172 176 186 192 197 203 204 202 207 211 210 208 203 196 192 193 198 199 200 207 215 217 219 221 224 226 226 224 221 220 221 219 218 218
275 248 233 237 218 194 180 174 193 237 1 360 6 27 20 6 359 293 257 323 331 257 262 357 255 239 202 159 158 155 161 167 158 150 142 130 127 126 124 117 111 113 114 112 113 124 139 154 174 180 177 176 177 177 182 188 191 194 196 198 206 213 214 215 215 215 214 214 218 218 214 214 215 214 214 217 220 223 225 227 225 221 220 219 219 220
285 264 271 254 223 206 207 212 239 249 256 285 324 355 3 8 11 351 322 345 326 269 302 342 253 244 117 135 140 136 142 147 140 134 129 126 124 122 122 119 114 112 108 103 98 96 97 104 120 145 160 169 176 181 184 187 187 188 191 195 202 207 210 212 215 220 223 223 226 227 226 224 224 224 225 222 219 218 221 225 226 223 219 216 217 221
291 259 277 269 243 218 212 221 277 273 263 269 286 306 323 347 360 358 356 351 317 272 296 248 184 136 88 109 124 130 136 137 138 137 130 125 123 120 118 112 108 103 98 94 93 90 89 90 94 100 106 118 139 160 170 178 191 198 197 200 203 203 206 210 211 214 218 220 223 225 225 226 227 229 232 233 230 224 221 220 221 221 219 215 214 218
302 266 220 241 245 223 213 224 257 302 291 272 267 277 295 334 3 14 13 360 335 301 267 205 186 140 110 115 125 138 145 144 140 136 134 128 119 120 119 110 107 105 99 98 97 92 90 90 93 94 92 89 87 90 103 117 140 179 190 199 209 210 211 214 214 214 215 216 217 220 222 224 226 227 229 231 232 231 226 219 216 216 216 215 214 214
319 289 243 234 246 227 210 220 222 241 273 261 258 287 334 349 10 27 31 27 6 313 277 214 106 88 138 151 149 152 157 154 141 133 137 127 112 118 122 111 107 107 104 104 104 100 98 93 90 90 87 84 82 78 79 85 88 88 91 111 163 189 195 202 208 212 216 218 220 222 222 220 220 221 224 226 226 225 221 216 215 215 215 215 214 213
311 284 271 247 255 236 205 204 207 210 220 209 52 24 10 353 352 16 42 41 24 334 317 341 32 89 164 170 164 157 150 139 125 106 108 119 116 122 126 118 114 111 106 104 105 104 101 96 91 90 88 87 86 87 85 83 84 87 88 90 92 100 115 120 119 131 162 202 221 226 222 217 218 222 224 223 221 218 216 216 217 216 215 216 214 213
314 279 268 249 253 242 202 208 219 219 199 89 64 25 6 347 338 4 52 38 19 360 314 261 187 172 185 171 142 126 115 102 89 68 55 97 128 134 129 122 120 116 109 105 104 104 103 102 98 95 96 95 93 92 93 93 96 97 97 102 102 96 96 100 94 90 94 95 94 138 192 206 217 225 224 223 223 221 221 224 225 221 218 218 216 216
330 291 260 249 248 237 215 218 223 208 103 103 93 35 8 336 320 327 68 56 25 4 307 259 146 151 176 159 131 121 120 105 82 56 39 54 108 128 133 128 121 117 114 110 105 100 98 101 102 97 96 99 98 95 96 99 104 102 99 100 101 99 100 101 96 88 87 89 88 89 96 123 170 205 224 223 222 220 222 227 232 232 231 229 225 221
334 307 271 244 228 241 244 230 215 182 145 131 103 48 16 343 334 325 285 30 17 357 51 106 129 145 157 156 148 149 143 121 92 59 45 55 73 93 113 119 115 113 113 111 107 100 94 95 98 96 94 96 96 93 92 94 96 96 95 94 94 94 94 92 89 85 84 83 83 89 95 98 103 98 96 177 193 200 213 220 225 231 234 234 229 221
333 323 304 272 223 242 258 240 222 223 194 113 73 53 26 346 324 303 275 294 10 345 73 113 142 154 154 160 163 163 160 148 135 110 80 81 81 85 100 110 113 113 111 109 107 102 94 92 95 97 98 96 93 88 86 85 86 86 85 86 88 89 84 78 77 79 79 75 71 76 84 87 90 90 88 97 98 89 90 138 193 207 217 221 220 213
286 259 264 263 239 236 253 244 235 238 141 58 32 16 7 345 297 278 255 205 19 340 320 124 158 165 162 166 169 171 179 176 160 143 131 125 119 109 106 112 120 123 118 112 108 101 94 92 94 95 93 91 91 90 84 81 80 80 79 80 84 85 79 72 69 69 70 70 70 72 76 79 83 86 85 87 93 92 85 74 75 112 163 184 184 173
284 252 237 251 244 234 256 254 242 115 63 33 359 349 359 352 269 253 239 205 8 332 297 181 172 171 159 156 170 186 203 173 121 104 111 115 111 109 115 122 127 125 119 113 107 102 97 94 94 92 87 83 86 89 86 81 78 75 75 76 75 75 72 67 65 66 65 66 68 69 71 74 76 78 77 76 78 86 93 90 80 86 109 126 114 102
275 300 287 263 249 213 249 251 207 96 55 6 345 345 353 324 247 247 255 358 344 312 289 279 195 174 159 159 174 202 204 135 119 107 99 91 80 74 84 99 107 108 110 111 108 105 102 98 93 90 86 82 81 81 78 78 76 71 68 70 70 70 69 66 65 67 66 64 63 61 64 70 74 74 75 75 73 71 82 97 95 93 102 103 93 90
263 262 242 265 281 292 260 260 219 118 60 350 334 333 337 302 240 285 341 333 315 299 279 257 210 180 171 174 178 168 134 131 128 126 124 117 108 91 73 68 73 82 93 102 104 106 107 105 101 96 91 87 84 82 81 79 76 71 66 66 65 65 69 69 68 68 66 64 63 60 61 65 69 71 73 77 81 81 80 85 90 95 106 110 111 117
345 301 228 100 322 278 233 251 262 119 46 357 338 337 359 353 348 353 339 324 323 312 262 230 205 182 182 182 169 140 128 129 131 133 132 128 125 116 104 93 83 78 83 92 101 109 113 109 103 95 89 86 81 80 84 84 82 77 69 63 59 58 65 68 69 71 70 66 64 62 60 61 62 65 69 72 79 85 84 87 91 97 106 112 115 118
344 310 337 54 17 299 260 16 21 35 28 8 358 23 28 10 352 334 320 321 336 329 269 229 199 186 191 189 166 146 139 141 143 140 134 131 130 127 125 126 120 103 88 75 72 85 101 105 102 93 86 83 78 77 80 84 86 83 74 64 55 52 59 61 64 70 72 69 68 64 62 62 61 61 63 65 70 75 75 77 81 86 94 103 108 109
42 348 341 9 14 343 356 37 43 30 27 23 27 39 25 3 347 333 317 314 337 343 318 274 213 188 196 191 163 145 138 143 145 139 131 127 129 131 134 136 131 118 108 91 72 74 89 94 94 90 83 77 72 72 75 80 86 83 73 63 55 51 53 56 57 61 64 65 67 65 64 69 67 63 62 59 61 66 64 64 68 67 68 75 80 82
72 29 294 301 12 38 67 74 65 61 52 46 58 62 27 11 9 358 342 344 356 353 331 307 240 186 184 168 144 125 114 116 125 134 138 138 135 134 135 137 135 130 127 123 116 108 96 84 80 78 74 69 65 64 64 67 77 79 71 62 56 53 50 50 53 56 55 58 63 60 59 65 65 64 63 59 58 61 59 59 62 60 55 58 62 63
128 186 245 264 320 298 181 115 88 74 52 42 65 97 57 29 26 19 8 11 11 1 2 24 85 152 151 139 128 126 132 120 100 112 134 142 148 148 145 146 149 150 147 143 139 134 112 86 76 71 64 56 51 53 56 58 64 72 72 69 65 60 53 50 51 51 50 53 58 57 54 53 51 53 58 58 56 58 58 57 61 62 57 54 54 55
131 214 249 248 266 280 75 96 95 95 81 58 45 58 52 34 32 33 29 31 33 36 48 70 113 142 144 140 141 154 162 146 128 125 125 125 140 145 142 142 150 152 145 141 146 148 127 107 101 97 89 67 46 41 48 55 60 65 65 63 65 66 63 59 54 47 43 43 45 47 49 49 45 45 53 58 56 54 50 46 49 60 59 50 45 43
121 213 225 231 258 261 172 130 148 162 127 97 67 55 47 34 35 41 41 43 50 55 61 76 107 135 146 147 149 160 167 158 148 148 148 143 137 130 119 114 118 127 130 133 143 143 122 115 119 120 111 94 69 53 54 56 58 61 60 58 61 66 67 65 60 51 46 43 41 41 43 47 47 41 41 53 65 66 54 38 33 48 56 45 34 32
221 242 207 228 256 264 99 110 141 235 144 92 72 60 49 39 43 50 47 45 49 51 56 74 90 115 143 152 158 167 170 164 160 161 162 164 164 161 154 143 118 94 102 135 147 139 124 118 124 124 114 106 101 91 83 72 63 61 58 55 57 61 61 60 57 53 46 39 35 30 23 31 44 39 31 33 48 67 68 51 41 47 57 48 35 28
245 282 280 274 286 359 66 73 54 322 40 80 72 59 50 38 40 55 55 50 52 51 53 69 83 103 135 158 179 182 175 168 169 173 174 175 175 175 174 170 160 153 167 189 175 151 144 143 146 145 135 127 127 122 112 102 88 75 64 55 51 51 53 53 53 52 46 37 29 18 8 14 27 30 29 29 28 33 62 82 77 71 57 43 44 58